[[{"header":{"parameterUnit":"m.s-1","parameterCategory":1,"la1":30.2991,"la2":30.254,"lo1":-89.0895,"lo2":-89.0444,"dy":0.0017,"dx":0.0017,"nx":28,"ny":28,"refTime":"2025-03-21T09:00:00:Z","depth":0,"parameterNumber":2,"parameterNumberName":"U-component_of_WINDS"},"data":[0,0,0,0,0,0,0,0,0,0,0,0,0,0,0,0,0,0,0,0,0,0,0,0,0,0,0,0,0,0,0,0,0,0,0,0,0,0,0,0,0,0,0,0,0,0,0,0,0,0,0,0,0,0,0,0,0,0,-1.3633,-1.3634,0,-1.367,-1.367,-1.3671,-1.3602,-1.36,-1.3598,-1.3595,-1.3634,-1.3637,-1.364,0,0,0,0,0,0,0,0,0,0,0,0,0,-1.3505,-1.3508,-1.3633,-1.3634,-1.3634,-1.367,-1.367,-1.3671,-1.3603,-1.36,-1.3597,-1.3594,-1.3633,-1.3637,-1.3641,0,0,0,0,0,0,0,0,0,0,0,0,0,-1.3553,-1.3509,-1.3633,-1.3605,-1.3602,-1.367,-1.367,-1.3671,-1.3603,-1.36,-1.3596,-1.3593,-1.3632,-1.3636,-1.3641,-1.3739,0,0,-1.3656,-1.3658,0,0,0,0,0,0,0,0,-1.3551,-1.3558,-1.3608,-1.3607,-1.3604,-1.3628,-1.3639,-1.3694,-1.3604,-1.3603,-1.3595,-1.3591,-1.3635,-1.3639,-1.3654,-1.374,-1.3742,-1.3656,-1.3659,-1.3661,-1.3662,0,0,0,0,0,0,0,-1.3547,-1.3556,-1.3648,-1.3609,-1.3607,-1.359,-1.3593,-1.3649,-1.3638,-1.3603,-1.3598,-1.3603,-1.3633,-1.3649,-1.3654,-1.3743,-1.3656,-1.366,-1.3663,-1.3665,-1.391,-1.3914,0,0,0,0,0,0,-1.3547,-1.3554,-1.3647,-1.3649,-1.3568,-1.3595,-1.3598,-1.3624,-1.3637,-1.3636,-1.3606,-1.36,-1.3643,-1.3649,-1.3655,-1.377,-1.3661,-1.3665,-1.3668,-1.3906,-1.3911,-1.3915,0,0,0,0,0,0,-1.3545,-1.3556,-1.3645,-1.36,-1.361,-1.3601,-1.363,-1.3626,-1.3642,-1.3639,-1.3637,-1.3624,-1.364,-1.3648,-1.3718,-1.377,-1.3667,-1.3672,-1.3902,-1.3908,-1.3913,-1.4,0,0,0,0,0,0,-1.3542,-1.3556,-1.3593,-1.3601,-1.3613,-1.3708,-1.3633,-1.3629,-1.365,-1.3643,-1.3656,-1.3655,-1.3638,-1.3711,-1.3723,-1.3775,-1.3675,-1.3897,-1.3905,-1.3911,-1.3993,-1.4008,-1.4021,0,0,0,0,0,-1.3537,-1.3617,-1.3595,-1.3607,-1.3659,-1.3711,-1.3717,-1.3696,-1.3655,-1.3692,-1.369,-1.3654,-1.3762,-1.3719,-1.3731,-1.3786,-1.3894,-1.3903,-1.3911,-1.3986,-1.4005,-1.4021,0,0,0,0,0,0,-1.3616,-1.3617,-1.3594,-1.3678,-1.3695,-1.3699,-1.3746,-1.3717,-1.3746,-1.3738,-1.3711,-1.3714,-1.3789,-1.3794,-1.3746,-1.388,-1.3821,-1.3832,-1.3874,-1.3892,-1.3906,-1.3904,-1.3679,0,0,0,0,0,-1.3643,-1.3685,-1.3684,-1.3758,-1.3768,-1.3755,-1.3777,-1.3759,-1.3776,-1.3783,-1.3786,-1.3804,-1.3841,-1.3867,-1.3901,-1.3992,-1.3994,-1.4035,-1.405,-1.4061,-1.4072,-1.412,-1.4138,-1.3942,-1.3942,-1.3942,0,0,-1.3699,-1.3705,-1.3734,-1.3774,-1.3785,-1.3829,-1.3762,-1.3812,-1.3844,-1.3791,-1.3856,-1.3859,-1.3877,-1.3958,-1.3993,-1.3964,-1.4126,-1.4072,-1.4081,-1.4085,-1.413,-1.4149,-1.4165,-1.3948,-1.3947,-1.3946,0,0,-1.3825,-1.3834,-1.3896,-1.3908,-1.3925,-1.3916,-1.3931,-1.394,-1.3939,-1.4005,-1.3965,-1.4003,-1.4069,-1.4083,-1.4098,-1.4228,-1.4196,-1.4239,-1.4315,-1.4362,-1.4377,-1.4391,-1.4437,-1.4454,-1.4249,-1.425,-1.425,0,-1.3893,-1.3958,-1.3932,-1.3985,-1.4004,-1.3956,-1.4019,-1.4032,-1.406,-1.4074,-1.404,-1.4121,-1.4129,-1.4212,-1.4244,-1.4258,-1.4274,-1.4239,-1.4377,-1.439,-1.4402,-1.4446,-1.4464,-1.4255,-1.4254,-1.4254,-1.4253,0,-1.4041,-1.4087,-1.4135,-1.4163,-1.4187,-1.4244,-1.4227,-1.4255,-1.4234,-1.4229,-1.4295,-1.4304,-1.4339,-1.4357,-1.4338,-1.4437,-1.4418,-1.4381,-1.4322,-1.4427,-1.4467,-1.4484,-1.4262,-1.426,-1.4259,-1.4258,0,0,-1.4219,-1.423,-1.4249,-1.426,-1.4274,-1.4309,-1.4364,-1.4397,-1.4421,-1.4442,-1.4487,-1.4543,-1.4508,-1.4526,-1.4508,-1.4549,-1.465,-1.4507,-1.4507,-1.4533,-1.476,-1.4789,-1.4809,-1.4629,-1.4632,-1.4634,-1.4759,0,-1.4344,-1.4439,-1.4417,-1.451,-1.4552,-1.4506,-1.4553,-1.4567,-1.4563,-1.4598,-1.4593,-1.4633,-1.4584,-1.4594,-1.4633,-1.463,-1.4696,-1.4621,-1.4671,-1.4674,-1.467,-1.483,-1.486,-1.4977,-1.4774,-1.4777,-1.4779,0,-1.4503,-1.4529,-1.4626,-1.4633,-1.4649,-1.4693,-1.4721,-1.4754,-1.4769,-1.4763,-1.4782,-1.4755,-1.4809,-1.4748,-1.4822,-1.4772,-1.4791,-1.4792,-1.4796,-1.4801,-1.4734,-1.484,-1.5014,-1.5032,-1.4804,-1.4802,-1.48,0,-1.4624,-1.4682,-1.4748,-1.4759,-1.4768,-1.48,-1.4805,-1.4816,-1.4837,-1.4862,-1.4875,-1.4906,-1.4923,-1.4947,-1.4929,-1.4887,-1.5006,-1.4944,-1.5003,-1.5004,-1.5032,-1.503,-1.5213,-1.5043,-1.5043,-1.5042,-1.5042,0,-1.4766,-1.4828,-1.4802,-1.4843,-1.491,-1.4883,-1.4951,-1.4951,-1.496,-1.5,-1.4962,-1.5,-1.4973,-1.5009,-1.4995,-1.5058,-1.5066,-1.5063,-1.5059,-1.5067,-1.5068,-1.508,-1.5072,-1.5047,-1.5046,-1.5045,-1.5044,0,-1.4913,-1.4898,-1.4967,-1.4969,-1.4971,-1.5021,-1.5023,-1.506,-1.5052,-1.5103,-1.5113,-1.5101,-1.5141,-1.5125,-1.5167,-1.5158,-1.5239,-1.5224,-1.5234,-1.5231,-1.5291,-1.5286,-1.5488,-1.5513,-1.5327,-1.5329,-1.533,0,-1.5006,-1.5052,-1.5059,-1.5082,-1.509,-1.5128,-1.5149,-1.5124,-1.5148,-1.5167,-1.5202,-1.5238,-1.5266,-1.5332,-1.5327,-1.5359,-1.5344,-1.5413,-1.5349,-1.5356,-1.5346,-1.5344,-1.5348,-1.5426,-1.5429,-1.543,-1.5432,0,-1.5171,-1.5161,-1.5193,-1.5222,-1.5248,-1.527,-1.5288,-1.5309,-1.5285,-1.5313,-1.5353,-1.5375,-1.5417,-1.5454,-1.5482,-1.5487,-1.5456,-1.5452,-1.5467,-1.5477,-1.5481,-1.548,-1.527,-1.5448,-1.5446,-1.5445,-1.5444,-1.5443,-1.5294,-1.5333,-1.5343,-1.538,-1.539,-1.5408,-1.5443,-1.5439,-1.5472,-1.5504,-1.5487,-1.5534,-1.5545,-1.5579,-1.5589,-1.5625,-1.5598,-1.562,-1.5626,-1.5632,-1.564,-1.5474,-1.5629,-1.5629,-1.5629,-1.5628,-1.5628,0,-1.5458,-1.5462,-1.5496,-1.5522,-1.5551,-1.5517,-1.5535,-1.5562,-1.5603,-1.5616,-1.5644,-1.5689,-1.5724,-1.5721,-1.5753,-1.5782,-1.5769,-1.5791,-1.5789,-1.5791,-1.5662,-1.5646,-1.5802,-1.5802,-1.5802,-1.5802,-1.5802,-1.5802,-1.5547,-1.5611,-1.5602,-1.567,-1.5673,-1.5718,-1.5731,-1.5747,-1.5757,-1.581,-1.5838,-1.5835,-1.5842,-1.5874,-1.5904,-1.5902,-1.5916,-1.5944,-1.5938,-1.5817,-1.58,-1.5784,-1.5768,-1.5948,-1.5948,-1.6063,-1.6064,-1.6065]},{"header":{"parameterUnit":"m.s-1","parameterCategory":1,"la1":30.2991,"la2":30.254,"lo1":-89.0895,"lo2":-89.0444,"dy":0.0017,"dx":0.0017,"nx":28,"ny":28,"refTime":"2025-03-21T09:00:00:Z","depth":0,"parameterNumber":3,"parameterNumberName":"V-component_of_WINDS"},"data":[0,0,0,0,0,0,0,0,0,0,0,0,0,0,0,0,0,0,0,0,0,0,0,0,0,0,0,0,0,0,0,0,0,0,0,0,0,0,0,0,0,0,0,0,0,0,0,0,0,0,0,0,0,0,0,0,0,0,-3.2585,-3.2586,0,-3.2689,-3.269,-3.2691,-3.2673,-3.2672,-3.267,-3.2668,-3.2772,-3.2776,-3.2781,0,0,0,0,0,0,0,0,0,0,0,0,0,-3.2369,-3.2373,-3.2585,-3.2586,-3.2588,-3.2689,-3.269,-3.2692,-3.2674,-3.2671,-3.2669,-3.2667,-3.2771,-3.2776,-3.2781,0,0,0,0,0,0,0,0,0,0,0,0,0,-3.2467,-3.2375,-3.2585,-3.2591,-3.2593,-3.2688,-3.269,-3.2692,-3.2674,-3.2671,-3.2669,-3.2666,-3.2769,-3.2775,-3.2782,-3.2878,0,0,-3.2802,-3.2805,0,0,0,0,0,0,0,0,-3.2461,-3.2475,-3.2589,-3.2591,-3.2593,-3.2665,-3.2652,-3.2754,-3.2675,-3.2643,-3.2668,-3.2665,-3.2739,-3.2748,-3.2773,-3.2883,-3.2887,-3.2803,-3.2807,-3.281,-3.2812,0,0,0,0,0,0,0,-3.2455,-3.247,-3.2626,-3.2591,-3.2593,-3.2588,-3.2599,-3.2671,-3.2705,-3.2646,-3.2645,-3.2657,-3.2739,-3.2767,-3.2775,-3.2889,-3.2803,-3.2809,-3.2813,-3.2816,-3.3081,-3.3084,0,0,0,0,0,0,-3.2446,-3.2465,-3.2623,-3.2629,-3.2519,-3.2594,-3.2606,-3.2645,-3.2704,-3.271,-3.2659,-3.2656,-3.2757,-3.2768,-3.2779,-3.2894,-3.281,-3.2816,-3.282,-3.3078,-3.3082,-3.3085,0,0,0,0,0,0,-3.2442,-3.2461,-3.2619,-3.2547,-3.2567,-3.2601,-3.2644,-3.2648,-3.2676,-3.2714,-3.272,-3.2682,-3.2755,-3.277,-3.2853,-3.2898,-3.2819,-3.2825,-3.3074,-3.3079,-3.3083,-3.3126,0,0,0,0,0,0,-3.2436,-3.2459,-3.2496,-3.2548,-3.2571,-3.2692,-3.2647,-3.2652,-3.2688,-3.2684,-3.2737,-3.2743,-3.2754,-3.2843,-3.286,-3.2905,-3.2831,-3.307,-3.3076,-3.3082,-3.3121,-3.3132,-3.3141,0,0,0,0,0,-3.2428,-3.2504,-3.2498,-3.2518,-3.2618,-3.2695,-3.2708,-3.2719,-3.2691,-3.2729,-3.2753,-3.2741,-3.289,-3.2852,-3.2871,-3.2919,-3.3068,-3.3075,-3.3081,-3.3116,-3.3129,-3.314,0,0,0,0,0,0,-3.2456,-3.2511,-3.2505,-3.26,-3.2643,-3.2692,-3.2739,-3.2733,-3.2784,-3.2779,-3.279,-3.2802,-3.2887,-3.2911,-3.2868,-3.3014,-3.2975,-3.2986,-3.2995,-3.3008,-3.3018,-3.301,-3.2836,0,0,0,0,0,-3.2474,-3.2532,-3.2577,-3.2656,-3.2678,-3.2705,-3.2739,-3.2744,-3.2789,-3.2806,-3.2837,-3.288,-3.2937,-3.2974,-3.3028,-3.3124,-3.3135,-3.3167,-3.3176,-3.3184,-3.3193,-3.3245,-3.326,-3.3107,-3.3107,-3.3107,0,0,-3.251,-3.2547,-3.2583,-3.2663,-3.2697,-3.2756,-3.272,-3.2785,-3.2829,-3.2816,-3.2897,-3.2921,-3.297,-3.306,-3.3102,-3.3083,-3.3238,-3.3193,-3.3199,-3.3204,-3.3254,-3.3268,-3.3281,-3.3112,-3.3111,-3.311,0,0,-3.2607,-3.2641,-3.2711,-3.2746,-3.2797,-3.2815,-3.2831,-3.2881,-3.2897,-3.2978,-3.297,-3.3022,-3.3119,-3.3154,-3.3185,-3.3294,-3.3284,-3.3311,-3.3363,-3.3413,-3.3425,-3.3436,-3.3475,-3.3488,-3.332,-3.332,-3.3321,0,-3.2645,-3.2736,-3.2747,-3.2813,-3.2848,-3.284,-3.291,-3.2943,-3.3009,-3.3033,-3.3011,-3.3133,-3.3165,-3.3263,-3.329,-3.3315,-3.3334,-3.3305,-3.3423,-3.3434,-3.3444,-3.3481,-3.3495,-3.3323,-3.3323,-3.3323,-3.3322,0,-3.278,-3.2842,-3.2892,-3.2957,-3.2998,-3.3065,-3.3087,-3.3126,-3.3128,-3.3147,-3.323,-3.3268,-3.333,-3.3354,-3.3356,-3.3452,-3.3439,-3.342,-3.3381,-3.3461,-3.3496,-3.351,-3.3327,-3.3326,-3.3326,-3.3325,0,0,-3.2897,-3.2968,-3.2986,-3.3015,-3.3071,-3.312,-3.3186,-3.3247,-3.328,-3.3326,-3.3382,-3.3464,-3.3447,-3.3482,-3.3488,-3.3533,-3.3616,-3.3508,-3.351,-3.3526,-3.3723,-3.3736,-3.3753,-3.361,-3.3613,-3.3615,-3.3719,0,-3.2999,-3.3117,-3.313,-3.3235,-3.3293,-3.3286,-3.3344,-3.3384,-3.3404,-3.3455,-3.3476,-3.3534,-3.3508,-3.3528,-3.3572,-3.3597,-3.3655,-3.3589,-3.3661,-3.3664,-3.3649,-3.3771,-3.3785,-3.3882,-3.3733,-3.3735,-3.3737,0,-3.3133,-3.3183,-3.3295,-3.3343,-3.3367,-3.3419,-3.3475,-3.3525,-3.357,-3.3581,-3.362,-3.362,-3.3688,-3.3646,-3.374,-3.3694,-3.3724,-3.3741,-3.3745,-3.3751,-3.3705,-3.378,-3.3913,-3.3927,-3.3758,-3.3756,-3.3755,0,-3.3206,-3.3302,-3.3381,-3.3406,-3.3464,-3.3501,-3.3526,-3.3569,-3.3605,-3.3654,-3.3677,-3.3733,-3.3763,-3.3807,-3.3822,-3.379,-3.3914,-3.3874,-3.3925,-3.3924,-3.3951,-3.3949,-3.4089,-3.3971,-3.3971,-3.3971,-3.397,0,-3.3318,-3.3386,-3.3415,-3.3463,-3.3539,-3.3552,-3.3627,-3.3651,-3.3689,-3.3741,-3.3738,-3.3788,-3.3805,-3.3857,-3.3869,-3.3944,-3.3958,-3.3968,-3.397,-3.3968,-3.3967,-3.3988,-3.3981,-3.3974,-3.3974,-3.3973,-3.3972,0,-3.3413,-3.3435,-3.352,-3.3568,-3.3582,-3.3635,-3.3676,-3.3722,-3.3741,-3.3808,-3.3824,-3.3854,-3.3914,-3.3934,-3.4007,-3.4015,-3.4103,-3.4099,-3.4088,-3.4088,-3.4137,-3.4132,-3.4295,-3.4317,-3.4185,-3.4186,-3.4188,0,-3.3482,-3.3535,-3.3588,-3.3623,-3.3651,-3.3707,-3.3744,-3.3759,-3.3796,-3.3852,-3.3891,-3.3952,-3.4,-3.4098,-3.4125,-3.4181,-3.4179,-3.4232,-3.4187,-3.4183,-3.4179,-3.4175,-3.418,-3.4241,-3.4242,-3.4243,-3.4244,0,-3.3603,-3.3611,-3.3664,-3.3721,-3.3764,-3.3809,-3.3853,-3.3882,-3.3903,-3.3945,-3.4008,-3.4046,-3.412,-3.418,-3.4237,-3.4262,-3.4257,-3.4258,-3.4273,-3.427,-3.4261,-3.4266,-3.411,-3.4254,-3.4253,-3.4252,-3.4252,-3.4251,-3.3687,-3.3733,-3.3778,-3.3837,-3.3871,-3.3912,-3.3957,-3.3982,-3.4035,-3.4097,-3.4103,-3.417,-3.4213,-3.4289,-3.4317,-3.437,-3.4354,-3.4375,-3.4381,-3.4386,-3.4389,-3.4253,-3.438,-3.438,-3.4379,-3.4379,-3.4379,0,-3.3807,-3.3836,-3.389,-3.3951,-3.3997,-3.3988,-3.4035,-3.4074,-3.4133,-3.4175,-3.4223,-3.4294,-3.4352,-3.4384,-3.4442,-3.4477,-3.4476,-3.4492,-3.4489,-3.4495,-3.44,-3.4381,-3.4492,-3.4492,-3.4492,-3.4492,-3.4492,-3.4492,-3.3875,-3.3952,-3.3966,-3.4059,-3.4087,-3.4153,-3.4181,-3.4218,-3.4251,-3.4331,-3.4379,-3.44,-3.4438,-3.4498,-3.455,-3.4558,-3.4579,-3.4597,-3.4603,-3.4513,-3.4502,-3.4491,-3.4473,-3.4601,-3.4601,-3.4693,-3.4694,-3.4695]}]]